Content
SEND FEEDBACK

Daily
Averages
Monthly
Summary
United States of America

AGANA, GUAM


Home > North America > United States > Guam
Elevation: 246 feet     Latitude: 13 29N     Longitude: 144 48E

WEATHER
 
SELECT A DAY
Number of Records: 209,044;   Date Range: 1/1/95 - 7/29/14
 
SHARE

PRINT THIS DATA

[ ← Previous Day ]
WEATHER ALMANAC - MARCH 4, 2013
[ Next Day → ]
[ °C ]   °F
Weather ElementAverageHighLow
Temperature82 °F87.8 °F (12:52 pm)75.9 °F (4:54 am)
Dewpoint76.2 °F77.4 °F (1:54 pm)75 °F (1:54 am)
Humidity83.1 %97 % (4:54 am)66 % (4:04 pm)
Barometer29.86 in29.91 in (8:38 am)29.80 in (3:54 pm)
Wind Speed9.4 mph16.1 mph (11:13 am)
Wind Gust20.7 mph (11:13 am)
Weather ElementAverage
Visibility9.8 mi
Wind DirectionE (90.8 °)

Weather ElementTotal
Precipitation0.06 in
Cooling Degree Days16.9 (Base 65)
Growing Degree Days31.9 (Base 50)
Averaged from 36 records on March 4, 2013
WEATHER CONDITIONS BREAKOUT
WIND DIRECTION BREAKOUT
WEATHER BY HOUR - MARCH 4, 2013
[ °C ]   °F
Local TimeTemperatureDewpointHumidityBarometerVisibilityWind DirectionWind SpeedGust SpeedPrecipitationEventsConditions
1:54 AM77.0 °F75.0 °F94 %29.83 in10.0 miEast (100°)6.9 mphPartly Cloudy
2:54 AM77.0 °F75.0 °F94 %29.81 in10.0 miEast (90°)8.1 mphScattered Clouds
3:54 AM77.0 °F75.0 °F94 %29.81 in10.0 miEast (90°)6.9 mphPartly Cloudy
4:54 AM75.9 °F75.0 °F97 %29.81 in10.0 miEast (90°)6.9 mphPartly Cloudy
5:54 AM77.0 °F75.0 °F94 %29.83 in10.0 miEast (80°)6.9 mphMostly Cloudy
6:42 AM77.0 °F75.2 °F94 %29.87 in10.0 miEast (80°)6.9 mphMostly Cloudy
6:49 AM77.0 °F75.2 °F94 %29.87 in10.0 miEast (80°)6.9 mphScattered Clouds
6:54 AM77.0 °F75.0 °F94 %29.86 in10.0 miEast (80°)5.8 mphMostly Cloudy
7:27 AM78.8 °F75.2 °F89 %29.88 in10.0 miEast (90°)10.4 mphScattered Clouds
7:54 AM78.1 °F75.0 °F90 %29.88 in10.0 miEast (80°)8.1 mphMostly Cloudy
8:02 AM78.8 °F75.2 °F89 %29.90 in10.0 miEast (80°)10.4 mphScattered Clouds
8:38 AM80.6 °F77.0 °F89 %29.91 in10.0 miEast (80°)9.2 mphMostly Cloudy
8:54 AM82.6 °F76.3 °F81 %29.89 in10.0 miEast (90°)11.5 mphMostly Cloudy
9:54 AM84.9 °F76.6 °F76 %29.89 in10.0 miEast (80°)13.8 mph19.6 mphMostly Cloudy
10:16 AM86.0 °F77.0 °F74 %29.91 in10.0 miEast (90°)11.5 mphScattered Clouds
10:54 AM85.6 °F77.0 °F75 %29.89 in10.0 miEast (100°)12.7 mphMostly Cloudy
11:13 AM82.4 °F75.2 °F79 %29.90 in10.0 miEast (80°)16.1 mph20.7 mphScattered Clouds
11:54 AM86.5 °F76.5 °F72 %29.87 in10.0 miEast (90°)10.4 mphMostly Cloudy
12:52 PM87.8 °F77.0 °F70 %29.87 in10.0 miEast (90°)11.5 mphMostly Cloudy
12:54 PM87.3 °F77.2 °F72 %29.84 in10.0 miESE (110°)11.5 mphMostly Cloudy
1:54 PM87.3 °F77.4 °F72 %29.82 in10.0 miEast (100°)9.2 mphScattered Clouds
2:54 PM87.3 °F77.4 °F72 %29.81 in10.0 miEast (100°)11.5 mphPartly Cloudy
3:54 PM87.1 °F75.0 °F67 %29.80 in10.0 miEast (90°)13.8 mphScattered Clouds
4:04 PM87.8 °F75.2 °F66 %29.82 in10.0 miEast (100°)11.5 mphMostly Cloudy
4:21 PM86.0 °F75.2 °F70 %29.83 in10.0 miEast (80°)13.8 mph0.00 inRainLight Rain
4:54 PM86.0 °F75.9 °F72 %29.81 in10.0 miESE (110°)8.1 mph0.00 inOvercast
5:13 PM84.2 °F77.0 °F79 %29.85 in5.0 miEast (80°)13.8 mph18.4 mph0.00 inRainLight Rain
5:36 PM80.6 °F77.0 °F89 %29.86 in10.0 miESE (110°)11.5 mph0.03 inOvercast
5:54 PM80.1 °F77.0 °F90 %29.84 in7.0 miESE (110°)8.1 mph16.1 mph0.03 inRainLight Rain
6:03 PM80.6 °F77.0 °F89 %29.86 in10.0 miESE (120°)5.8 mph0.00 inOvercast
6:54 PM81.0 °F77.0 °F88 %29.86 in10.0 miEast (90°)5.8 mph0.00 inPartly Cloudy
7:54 PM81.0 °F77.0 °F88 %29.87 in10.0 miEast (90°)6.9 mphPartly Cloudy
8:54 PM82.0 °F77.0 °F85 %29.89 in10.0 miEast (90°)6.9 mphPartly Cloudy
9:54 PM82.0 °F77.0 °F85 %29.90 in10.0 miEast (90°)6.9 mphPartly Cloudy
10:54 PM82.0 °F77.0 °F85 %29.91 in10.0 miEast (90°)6.9 mphOvercast
11:54 PM82.0 °F77.0 °F85 %29.91 in10.0 miENE (70°)4.6 mphOvercast
Hourly data recorded from PGUM, located miles away from Agana, Guam







STORIES FROM OUR PARTNERS